Regional Weather Roundup
Issued by NWS

Home | Current Version | Previous Version | Graphics & Text | Print | Product List | Glossary On
Versions: 1 2 3 4 5 6 7 8 9 10 11 12 13 14 15 16 17 18 19 20 21 22 23 24 25 26 27 28 29 30 31 32 33 34 35 36 37 38 39 40 41 42 43 44 45 46 47 48 49 50
000
ASUS43 KIND 062209
RWRIN

WEATHER ROUNDUP FOR INDIANA
NATIONAL WEATHER SERVICE INDIANAPOLIS IN
600 PM EDT MON JUL 06 2015

NOTE: "FAIR" INDICATES FEW OR NO CLOUDS BELOW 12,000 FEET WITH NO
SIGNIFICANT WEATHER AND/OR OBSTRUCTIONS TO VISIBILITY.

* - STATION DOES NOT REPORT WEATHER SUCH AS PRECIPITATION OR FOG.

+ - STATION NOT QUALITY CONTROLLED BY THE NATIONAL WEATHER SERVICE.
    USE DATA WITH CAUTION...ESPECIALLY DEWPOINT AND RELATIVE
    HUMIDITY OBSERVATIONS.

INZ001>003-010>013-019-020-062300-
NORTHWEST INDIANA

CITY           SKY/WX    TMP DP  RH WIND       PRES   REMARKS
GARY /AIRPORT/ RAIN     N/A N/A N/A W14G32    29.95R
KNOX *+        PTSUNNY   84  66  54 S10G20    29.92F
LA PORTE +     PTSUNNY   86  70  58 S10       29.93F
MICHIGAN CITY+ CLOUDY    82  66  57 S12G17    29.92F
MONTICELLO +   PTSUNNY   83  71  67 S10       29.94F
RENSSELAER +   CLOUDY    84  73  70 S8        29.93F
VALPARAISO     PTSUNNY   83  69  62 S9        29.92F

$$

LMZ046-743>745-062300-
SOUTHERN LAKE MICHIGAN

STATION/POSITION TIME  TEMP    WIND        PRES    WAVE
                       AIR SEA DIR/SP/G            HT
                 (UTC) (F)     (DEG/KT/KT) (MB)    (FT)
BURNS HARBOR     2200   84     180/ 11/ 19 1013.2S
MICHIGAN CITY    2200   83     160/ 12/ 15   N/A
5NW MICH CITY    2200   76 68  170/  2/  4   N/A     1

$$

INZ004-005-014>016-021>024-062300-
NORTH CENTRAL INDIANA

CITY           SKY/WX    TMP DP  RH WIND       PRES   REMARKS
ELKHART        PTSUNNY   82  64  54 S8        29.95F
GOSHEN         MOSUNNY   83  67  58 S17       29.95F
LOGANSPORT +   MOSUNNY   82  63  51 S12       29.96F
PERU/GRISSOM   MOSUNNY   84  68  58 SW13      29.95F
ROCHESTER +    MOSUNNY   86  68  54 S8        29.95F
SOUTH BEND     MOSUNNY   85  67  54 S14       29.93F
WARSAW +         N/A     82  64  54 S6        29.95F

$$

INZ006>009-017-018-025>027-062300-
NORTHEAST INDIANA

CITY           SKY/WX    TMP DP  RH WIND       PRES   REMARKS
ANGOLA *+        N/A     84  66  54 SW9       29.97F
AUBURN +       SUNNY     82  63  51 SW6       29.98F
FORT WAYNE     MOSUNNY   85  65  51 S16       29.97F
HUNTINGTON +   PTSUNNY   83  66  56 SW8       29.97S

$$

INZ028-029-035-036-043>045-051>053-062300-
WEST CENTRAL INDIANA

CITY           SKY/WX    TMP DP  RH WIND       PRES   REMARKS
CRAWFORDSVL +  PTSUNNY   82  67  60 S8        29.97F
GREENCASTLE +  MOSUNNY   82  66  57 S5        29.99F
LAFAYETTE      PTSUNNY   82  70  66 S9        29.94F
TERRE HAUTE    MOSUNNY   86  72  62 S9        29.97F

$$

INZ030>032-037>040-046>048-054>057-064-065-062300-
CENTRAL INDIANA

CITY           SKY/WX    TMP DP  RH WIND       PRES   REMARKS
CP ATTERBURY + SUNNY     82  68  61 SW9       30.00S
COLUMBUS       MOSUNNY   84  63  48 SW12      30.00
FRANKFORT +    MOSUNNY   85  70  61 S9        29.99F
GREENWOOD *+   SUNNY     82  64  54 SW9       30.00F
INDIANAPOLIS   MOSUNNY   84  66  54 SW12      29.98F
-EAGLE CREEK   MOSUNNY   84  66  54 SW10      29.98F
KOKOMO *+      PTSUNNY   84  66  54 S10       29.97F
MARION +       PTSUNNY   82  64  53 S10       29.99S
MT COMFORT *+  SUNNY     82  57  42 SW8G16    30.00S
SHELBYVILLE    MOSUNNY   85  69  58 S10       29.99F
ZIONSVILLE +   MOSUNNY   84  64  52 S12       29.99S

$$

INZ033-034-041-042-049-050-058-059-062300-
EAST CENTRAL INDIANA

CITY           SKY/WX    TMP DP  RH WIND       PRES   REMARKS
MUNCIE         MOSUNNY   84  65  52 S10G18    29.99F

$$

INZ060-061-067>069-081>083-085>088-062300-
SOUTHWEST INDIANA

CITY           SKY/WX    TMP DP  RH WIND       PRES   REMARKS
EVANSVILLE     PTSUNNY   85  72  65 SW16      30.00F
HUNTINGBURG *+ PTSUNNY   84  72  65 SW9       30.01F
WASHINGTON +   MOSUNNY   84  68  58 S8        29.98F

$$

INZ062-063-066-070>080-084-089>092-062300-
SOUTH CENTRAL AND SOUTHEAST INDIANA

CITY           SKY/WX    TMP DP  RH WIND       PRES   REMARKS
BLOOMINGTON    MOSUNNY   84  70  62 SW10      30.00F
MADISON *+     MOSUNNY   84  64  51 SW6       30.04F
NORTH VERNON + SUNNY     86  66  51 S7        30.01F
SEYMOUR +      PTSUNNY   84  70  61 S9        30.00F

$$




USA.gov is the U.S. government's official web portal to all federal, state and local government web resources and services.